Regional Weather Roundup
Issued by NWS Huntsville, AL

Home | Current Version | Previous Version | Text Only | Print | Product List | Glossary On
Versions: 1 2 3 4 5 6 7 8 9 10 11 12 13 14 15 16 17 18 19 20 21 22 23 24 25 26 27 28 29 30 31 32 33 34 35 36 37 38 39 40 41 42 43 44 45 46 47 48 49 50
000
ASUS44 KHUN 261610
RWRHUN

WEATHER ROUNDUP FOR THE TENNESSEE VALLEY
NATIONAL WEATHER SERVICE HUNTSVILLE AL
1100 AM CDT TUE MAY 26 2015

ALZ001>004-261700-
NORTHWEST ALABAMA

CITY           SKY/WX    TMP DP  RH WIND       PRES   REMARKS
BANKHEAD NF      N/A     71  70  96 SE3         N/A
SHOALS AIRPORT LGT RAIN  73  68  84 SE10      30.10S
SHOALS TVA RES   N/A     72 N/A N/A MISG        N/A
$$

ALZ005>007-016-261700-
NORTH CENTRAL ALABAMA

CITY           SKY/WX    TMP DP  RH WIND       PRES   REMARKS
DECATUR AP     CLOUDY    79  70  74 S16G23    30.13S
HUNTSVILLE AP  CLOUDY    81  68  64 S17       30.13F
HUN NWS/UAH      N/A     79  65  63 S13         N/A
MERIDIANVILLE  CLOUDY    77  61  57 S14G23    30.14F
REDSTONE ARSN  CLOUDY    79  68  70 S16       30.13F
VINEMONT AP    FAIR      75  67  76 S12G20    30.17F
$$

ALZ008>010-261700-
NORTHEAST ALABAMA

CITY           SKY/WX    TMP DP  RH WIND       PRES   REMARKS
ALBERTVILLE    PTSUNNY   79  72  78 S16       30.18R
FORT PAYNE     PTSUNNY   79  64  61 S8G16     30.18R
SCOTTSBORO HCN   N/A     79 N/A N/A MISG        N/A
VALLEY HEAD      N/A     79 N/A N/A MISG        N/A
$$

TNZ076-096-097-261700-
SOUTHEASTERN MIDDLE TENNESSEE

CITY           SKY/WX    TMP DP  RH WIND       PRES   REMARKS
TULLAHOMA      PTSUNNY   77  64  65 S12       30.16S
WINCHESTER     MOSUNNY   81  66  61 S14       30.16R
$$

...SURROUNDING SITES...

CITY           SKY/WX    TMP DP  RH WIND       PRES   REMARKS
ATLANTA        PTSUNNY   78  70  76 S12       30.24S
ANNISTON       CLOUDY    81  67  62 S7        30.19S
BIRMINGHAM     CLOUDY    77  70  79 SE9G18    30.18F
CHATTANOOGA    PTSUNNY   79  70  74 SE10      30.18F
CORINTH        CLOUDY    72  64  78 SW9       30.09R
DALTON         CLOUDY    73  70  88 SE8       30.21S
GADSDEN        PTSUNNY  N/A N/A N/A S12G18    30.17R
GOLDEN TRNGL   PTSUNNY   70  64  83 W8        30.11R
HALEYVILLE     PTSUNNY   70  70 100 SE9       30.13F
JACKSON TN     CLOUDY    73  64  73 S12       30.07R
LEWISBURG      CLOUDY    78  68  71 S13       30.11S
MEMPHIS        MOSUNNY   74  62  66 W12       30.07S
NASHVILLE      CLOUDY    78  68  71 S17G25    30.09F
OXFORD MS      FAIR      70  63  78 W7        30.11R
ROME           PTSUNNY   80  71  74 S9        30.18F
SAVANNAH       CLOUDY    72  32  23 S6        30.10R
TUPELO         CLOUDY    71  63  75 W6        30.10S
TUSCALOOSA     LGT RAIN  73  70  90 SE10      30.12F
$$

...GULF COAST WEATHER...

CITY           SKY/WX    TMP DP  RH WIND       PRES   REMARKS
GULFPORT       LGT RAIN  71  65  81 E10       30.10S
PASCAGOULA     CLOUDY    71  65  81 NE7       30.12S
MOBILE         CLOUDY    70  66  87 NE8       30.13F
GULF SHORES    TSTM      71  70  99 N3        30.13F
PENSACOLA      TSTM      72  69  90 NW15      30.17R FOG
DESTIN         MOSUNNY   86  76  71 SE13      30.15S HX  96
PANAMA CITY    MOSUNNY   86  75  70 S18       30.15R HX  95
APPALACHICOLA  MOSUNNY   89  75  63 S18       30.17S HX  99
$$



USA.gov is the U.S. government's official web portal to all federal, state and local government web resources and services.